Time,TemperatureF,DewpointF,PressureIn,WindDirection,WindDirectionDegrees,WindSpeedMPH,WindSpeedGustMPH,Humidity,HourlyPrecipIn,Conditions,Clouds,dailyrainin,SoftwareType,DateUTC
2015-07-04 00:05:00,55.9,47.4,29.82,NE,42,0.0,0.0,73,0.00,,,0.00,Wunderground v.1.15,2015-07-04 06:05:00,
2015-07-04 00:15:00,55.3,47.2,29.82,ESE,109,0.0,1.0,74,0.00,,,0.00,Wunderground v.1.15,2015-07-04 06:15:00,
2015-07-04 00:25:00,55.0,47.2,29.81,SE,144,0.0,1.0,75,0.00,,,0.00,Wunderground v.1.15,2015-07-04 06:25:00,
2015-07-04 00:35:00,55.2,47.8,29.79,ESE,105,1.0,1.0,76,0.00,,,0.00,Wunderground v.1.15,2015-07-04 06:35:00,
2015-07-04 00:45:00,55.3,48.2,29.79,ESE,104,0.0,1.0,77,0.00,,,0.00,Wunderground v.1.15,2015-07-04 06:45:00,
2015-07-04 00:50:00,55.6,48.2,29.79,NNE,33,0.0,0.0,76,0.00,,,0.00,Wunderground v.1.15,2015-07-04 06:50:00,
2015-07-04 01:00:00,55.0,47.9,29.78,NNE,33,0.0,0.0,77,0.00,,,0.00,Wunderground v.1.15,2015-07-04 07:00:00,
2015-07-04 01:10:00,54.5,48.1,29.78,NNE,32,0.0,0.0,79,0.00,,,0.00,Wunderground v.1.15,2015-07-04 07:10:00,
2015-07-04 01:20:00,54.1,47.7,29.78,East,94,0.0,0.0,79,0.00,,,0.00,Wunderground v.1.15,2015-07-04 07:20:00,
2015-07-04 01:30:00,54.1,47.7,29.77,East,99,0.0,1.0,79,0.00,,,0.00,Wunderground v.1.15,2015-07-04 07:30:00,
2015-07-04 01:40:00,54.2,47.5,29.77,East,98,0.0,0.0,78,0.00,,,0.00,Wunderground v.1.15,2015-07-04 07:40:00,
2015-07-04 01:45:00,54.1,47.7,29.77,East,100,0.0,0.0,79,0.00,,,0.00,Wunderground v.1.15,2015-07-04 07:45:00,
2015-07-04 01:55:00,53.7,47.3,29.76,ESE,109,0.0,0.0,79,0.00,,,0.00,Wunderground v.1.15,2015-07-04 07:55:00,
2015-07-04 02:05:00,54.4,47.7,29.76,ESE,109,0.0,0.0,78,0.00,,,0.00,Wunderground v.1.15,2015-07-04 08:05:00,
2015-07-04 02:15:00,54.1,47.4,29.76,ESE,105,1.0,1.0,78,0.00,,,0.00,Wunderground v.1.15,2015-07-04 08:15:00,
2015-07-04 02:25:00,54.2,47.1,29.75,SE,146,0.0,1.0,77,0.00,,,0.00,Wunderground v.1.15,2015-07-04 08:25:00,
2015-07-04 02:30:00,53.6,46.9,29.75,ESE,109,0.0,0.0,78,0.00,,,0.00,Wunderground v.1.15,2015-07-04 08:30:00,
2015-07-04 02:35:00,53.9,46.5,29.75,East,81,1.0,1.0,76,0.00,,,0.00,Wunderground v.1.15,2015-07-04 08:35:00,
2015-07-04 02:40:00,54.5,46.4,29.75,SE,136,1.0,1.0,74,0.00,,,0.00,Wunderground v.1.15,2015-07-04 08:40:00,
2015-07-04 02:50:00,54.0,45.5,29.75,ESE,108,1.0,1.0,73,0.00,,,0.00,Wunderground v.1.15,2015-07-04 08:50:00,
2015-07-04 02:55:00,54.0,45.5,29.75,SSE,167,1.0,1.0,73,0.00,,,0.00,Wunderground v.1.15,2015-07-04 08:55:00,
2015-07-04 03:05:00,53.8,45.0,29.75,ESE,110,1.0,1.0,72,0.00,,,0.00,Wunderground v.1.15,2015-07-04 09:05:00,
2015-07-04 03:15:00,53.8,44.6,29.75,East,82,1.0,1.0,71,0.00,,,0.00,Wunderground v.1.15,2015-07-04 09:15:00,
2015-07-04 03:25:00,54.2,44.2,29.74,ESE,111,1.0,1.0,69,0.00,,,0.00,Wunderground v.1.15,2015-07-04 09:25:00,
2015-07-04 03:35:00,54.4,44.1,29.75,SE,134,1.0,2.0,68,0.00,,,0.00,Wunderground v.1.15,2015-07-04 09:35:00,
2015-07-04 03:45:00,55.8,43.0,29.75,SE,134,1.0,1.0,62,0.00,,,0.00,Wunderground v.1.15,2015-07-04 09:45:00,
2015-07-04 03:55:00,55.8,42.5,29.75,East,83,0.0,0.0,61,0.00,,,0.00,Wunderground v.1.15,2015-07-04 09:55:00,
2015-07-04 04:05:00,57.2,42.5,29.74,ESE,108,0.0,1.0,58,0.00,,,0.00,Wunderground v.1.15,2015-07-04 10:05:00,
2015-07-04 04:10:00,57.1,42.5,29.74,ESE,115,1.0,3.0,58,0.00,,,0.00,Wunderground v.1.15,2015-07-04 10:10:00,
2015-07-04 04:20:00,56.9,42.7,29.74,SSE,152,1.0,1.0,59,0.00,,,0.00,Wunderground v.1.15,2015-07-04 10:20:00,
2015-07-04 04:30:00,57.2,42.5,29.74,SW,234,1.0,1.0,58,0.00,,,0.00,Wunderground v.1.15,2015-07-04 10:30:00,
2015-07-04 04:40:00,56.8,43.1,29.74,NNE,24,1.0,1.0,60,0.00,,,0.00,Wunderground v.1.15,2015-07-04 10:40:00,
2015-07-04 04:50:00,57.2,43.0,29.74,East,86,1.0,3.0,59,0.00,,,0.00,Wunderground v.1.15,2015-07-04 10:50:00,
2015-07-04 05:00:00,57.6,42.9,29.75,NNW,335,1.0,6.0,58,0.00,,,0.00,Wunderground v.1.15,2015-07-04 11:00:00,
2015-07-04 05:10:00,60.4,43.7,29.75,NNW,347,4.0,7.0,54,0.00,,,0.00,Wunderground v.1.15,2015-07-04 11:10:00,
2015-07-04 05:20:00,61.9,43.6,29.74,NW,325,4.0,4.0,51,0.00,,,0.00,Wunderground v.1.15,2015-07-04 11:20:00,
2015-07-04 05:25:00,62.3,43.4,29.74,NW,309,4.0,4.0,50,0.00,,,0.00,Wunderground v.1.15,2015-07-04 11:25:00,
2015-07-04 05:35:00,62.5,43.6,29.75,NW,326,3.0,5.0,50,0.00,,,0.00,Wunderground v.1.15,2015-07-04 11:35:00,
2015-07-04 05:45:00,62.5,43.1,29.75,NW,318,3.0,3.0,49,0.00,,,0.00,Wunderground v.1.15,2015-07-04 11:45:00,
2015-07-04 05:55:00,62.8,43.3,29.75,ESE,115,3.0,5.0,49,0.00,,,0.00,Wunderground v.1.15,2015-07-04 11:55:00,
2015-07-04 06:05:00,62.8,43.3,29.75,NW,311,4.0,4.0,49,0.00,,,0.00,Wunderground v.1.15,2015-07-04 12:05:00,
2015-07-04 06:15:00,62.5,43.1,29.75,WNW,285,3.0,6.0,49,0.00,,,0.00,Wunderground v.1.15,2015-07-04 12:15:00,
2015-07-04 06:20:00,62.4,43.5,29.75,WNW,288,3.0,3.0,50,0.00,,,0.00,Wunderground v.1.15,2015-07-04 12:20:00,
2015-07-04 06:30:00,62.4,43.0,29.75,North,349,4.0,4.0,49,0.00,,,0.00,Wunderground v.1.15,2015-07-04 12:30:00,
2015-07-04 06:40:00,62.8,43.3,29.75,WNW,283,4.0,4.0,49,0.00,,,0.00,Wunderground v.1.15,2015-07-04 12:40:00,
2015-07-04 06:50:00,62.8,42.3,29.75,NW,312,4.0,4.0,47,0.00,,,0.00,Wunderground v.1.15,2015-07-04 12:50:00,
2015-07-04 07:00:00,63.3,43.3,29.75,WNW,294,4.0,4.0,48,0.00,,,0.00,Wunderground v.1.15,2015-07-04 13:00:00,
2015-07-04 07:05:00,63.3,43.3,29.75,NW,304,4.0,4.0,48,0.00,,,0.00,Wunderground v.1.15,2015-07-04 13:05:00,
2015-07-04 07:15:00,63.0,43.0,29.74,NNW,330,3.0,3.0,48,0.00,,,0.00,Wunderground v.1.15,2015-07-04 13:15:00,
2015-07-04 07:25:00,63.2,42.6,29.74,NNW,332,3.0,5.0,47,0.00,,,0.00,Wunderground v.1.15,2015-07-04 13:25:00,
2015-07-04 07:30:00,63.5,42.9,29.74,NW,312,3.0,4.0,47,0.00,,,0.00,Wunderground v.1.15,2015-07-04 13:30:00,
2015-07-04 07:40:00,63.5,42.9,29.75,NW,304,4.0,4.0,47,0.00,,,0.00,Wunderground v.1.15,2015-07-04 13:40:00,
2015-07-04 07:50:00,64.4,43.7,29.76,SW,233,3.0,7.0,47,0.00,,,0.00,Wunderground v.1.15,2015-07-04 13:50:00,
2015-07-04 08:00:00,65.5,43.6,29.76,WNW,290,4.0,4.0,45,0.00,,,0.00,Wunderground v.1.15,2015-07-04 14:00:00,
2015-07-04 08:05:00,65.9,43.4,29.76,NW,306,3.0,4.0,44,0.00,,,0.00,Wunderground v.1.15,2015-07-04 14:05:00,
2015-07-04 08:15:00,66.4,43.8,29.76,NW,326,3.0,8.0,44,0.00,,,0.00,Wunderground v.1.15,2015-07-04 14:15:00,
2015-07-04 08:25:00,66.9,43.7,29.75,NW,309,3.0,4.0,43,0.00,,,0.00,Wunderground v.1.15,2015-07-04 14:25:00,
2015-07-04 08:35:00,67.6,43.1,29.75,NW,308,2.0,2.0,41,0.00,,,0.00,Wunderground v.1.15,2015-07-04 14:35:00,
2015-07-04 08:45:00,68.4,43.8,29.75,WNW,295,2.0,2.0,41,0.00,,,0.00,Wunderground v.1.15,2015-07-04 14:45:00,
2015-07-04 08:55:00,69.3,43.3,29.75,NNW,333,2.0,6.0,39,0.00,,,0.00,Wunderground v.1.15,2015-07-04 14:55:00,
2015-07-04 09:10:00,70.6,43.7,29.74,NW,304,2.0,2.0,38,0.00,,,0.00,Wunderground v.1.15,2015-07-04 15:10:00,